Regional Weather Roundup
Issued by NWS

Home | Current Version | Previous Version | Graphics & Text | Print | Product List | Glossary Off
Versions: 1 2 3 4 5 6 7 8 9 10 11 12 13 14 15 16 17 18 19 20 21 22 23 24 25 26 27 28 29 30 31 32 33 34 35 36 37 38 39 40 41 42 43 44 45 46 47 48 49 50

000
ASUS43 KMKX 272311
RWRWI

WISCONSIN REGIONAL WEATHER ROUNDUP
NATIONAL WEATHER SERVICE MILWAUKEE/SULLIVAN WI
600 PM CDT TUE SEP 27 2016

NOTE: "FAIR" INDICATES FEW OR NO CLOUDS BELOW 12,000 FEET WITH NO
SIGNIFICANT WEATHER AND/OR OBSTRUCTIONS TO VISIBILITY.

WIZ001-002-006>008-014>016-023>028-280000-
NORTHWEST WISCONSIN

CITY           SKY/WX    TMP DP  RH WIND       PRES   REMARKS
SUPERIOR ARPT  CLOUDY    49  45  87 NW5       29.79R
ASHLAND        CLOUDY    51  46  83 NW7       29.74R
HAYWARD        LGT RAIN  48  45  89 VRB6      29.76R FOG
SIREN          DRIZZLE   48  46  91 N7        29.80R
CUMBERLAND     LGT RAIN  46  43  87 NW10G16   29.78S
RICE LAKE      DRIZZLE   48  45  88 NW6       29.79S
CHETEK         NOT AVBL
LADYSMITH      DRIZZLE   49  46  90 W10       29.76S
EAU CLAIRE     LGT RAIN  50  48  93 NW8       29.77R
MENOMONIE      DRIZZLE   49  49 100 W10       29.79R
NEW RICHMOND   LGT RAIN  49  48  95 NW12G17   29.81S
OSCEOLA        RAIN      50  50 100 NW8G18    29.84R
$$

WIZ003>005-009-010-017-018-280000-
NORTH CENTRAL WISCONSIN

CITY           SKY/WX    TMP DP  RH WIND       PRES   REMARKS
MANITOWISH WTR NOT AVBL
ARBOR VITAE    DRIZZLE   49  47  93 NW8       29.70R
WOODRUFF       DRIZZLE   49  47  93 NW8       29.70R
RHINELANDER    CLOUDY    48  48 100 W7        29.70S
EAGLE RIVER    DRIZZLE   47  47 100 CALM      29.69R
LAND O LAKES   CLOUDY    48  47  94 NW6       29.70R
PHILLIPS       DRIZZLE   46  46  98 NW5       29.72R
TOMAHAWK       CLOUDY    47  45  91 W7        29.72R FOG
MEDFORD        DRIZZLE   47  47 100 W9        29.73R
MERRILL        CLOUDY    49  47  93 NW3       29.72R
$$

WIZ029-030-035-036-043>047-280000-
CENTRAL WISCONSIN

CITY           SKY/WX    TMP DP  RH WIND       PRES   REMARKS
WAUSAU         CLOUDY    49  46  90 W9        29.71R
MOSINEE        LGT RAIN  48  48 100 W10G16    29.73R
MARSHFIELD     LGT RAIN  49  45  86 NW10      29.74R
STEVENS POINT  LGT RAIN  47  47  99 W7        29.74R
WAUPACA        LGT RAIN  53  50  92 W8        29.74R
WAUTOMA        LGT RAIN  51  48  89 W9        29.75S
WISC RAPIDS    LGT RAIN  50  49  96 NW9       29.76R
CAMP DOUGLAS   CLOUDY    50  48  93 NW9       29.77R
$$

WIZ011>013-019>022-031-037>040-048>050-280000-
NORTHEAST WISCONSIN

CITY           SKY/WX    TMP DP  RH WIND       PRES   REMARKS
ANTIGO         CLOUDY    47  47  97 NW8       29.70R
SHAWANO        DRIZZLE   53  49  87 W6        29.71R
OCONTO         NOT AVBL
STURGEON BAY   LGT RAIN  52  49  89 W12       29.69R
GREEN BAY      CLOUDY    51  51 100 W8        29.71R
MANITOWOC      LGT RAIN  52  47  83 MISG      29.73R
APPLETON       LGT RAIN  50  48  93 W10       29.72R
CLINTONVILLE   NOT AVBL
OSHKOSH        LGT RAIN  52  47  83 W7        29.74R
$$

WIZ032>034-041-042-053>061-280000-
SOUTHWEST WISCONSIN

CITY           SKY/WX    TMP DP  RH WIND       PRES   REMARKS
LA CROSSE      LGT RAIN  57  46  66 N8        29.77R
SPARTA         LGT RAIN  49  48  96 NW7       29.79R
VIROQUA        CLOUDY    55  44  64 N8        29.77R
BOSCOBEL       PTCLDY    64  38  38 W6        29.75R
PRAIRIE DU CHI MOCLDY    64  32  30 W8        29.75S
PLATTEVILLE    CLOUDY    63  37  38 W9        29.76R
$$

WIZ056-057-062-063-064-067-068-280000-
SOUTH CENTRAL WISCONSIN

CITY           SKY/WX    TMP DP  RH WIND       PRES   REMARKS
REEDSBURG      NOT AVBL
BARABOO/DELLS  LGT RAIN  51  46  84 NW5       29.77R
LONE ROCK      CLOUDY    61  39  44 NW13      29.75R
MINERAL POINT  CLOUDY    63  34  34 NW8       29.75S
MADISON        LGT RAIN  54  47  77 N12       29.75R
MIDDLETON      PTCLDY    56  48  72 N9        29.76R
WATERTOWN      RAIN      53  49  88 NW5       29.76R
MONROE         CLOUDY    63  32  31 W13G21    29.75R
JANESVILLE     CLOUDY    64  37  36 NW10      29.73R
$$

WIZ051-052-058>065-066-070>072-280000-
SOUTHEAST WISCONSIN

CITY           SKY/WX    TMP DP  RH WIND       PRES   REMARKS
MILWAUKEE      LGT RAIN  57  46  66 NW8       29.76R
WAUKESHA       LGT RAIN  52  46  82 NW5       29.77R
MILWAUKEE/TIMM CLOUDY    54  46  76 W5        29.76R
RACINE         CLOUDY    58  45  62 NW6       29.77R
BURLINGTON     CLOUDY    56  43  62 N8        29.75R
KENOSHA        CLOUDY    60  45  57 N9        29.75R
FOND DU LAC    LGT RAIN  53  46  77 W12       29.75R
SHEBOYGAN      CLOUDY    55  44  66 NW9       29.73R
WEST BEND      RAIN      52  45  76 W7        29.75R
JUNEAU         LGT RAIN  51  47  83 W5        29.77R
$$

LSZ147-162-280000-
LAKE SUPERIOR

STATION/POSITION TIME  TEMP    WIND        PRES    WAVE
                       AIR SEA DIR/SP/G            HT/PER
                 (UTC) (F)     (DEG/KT/KT) (MB)    (FT/S)
W MID LAKE BUOY  2250   53 51  300/ 10/ 12 1004.9R   3/ 4
DEVILS ISLAND    2300   52     320/ 13/ 15 1006.9R
SAXON HARBOR     2200   53     280/  9/ 16 1006.1R
$$

LMZ867-665-643>646-280000-
LAKE MICHIGAN

STATION/POSITION TIME  TEMP    WIND        PRES    WAVE
                       AIR SEA DIR/SP/G            HT/PER
                 (UTC) (F)     (DEG/KT/KT) (MB)    (FT/S)
CHAMBERS ISLAND  2200   53     230/  7/ 12 1004.1R
N MID LAKE BUOY  2250   55 66  250/ 16/ 19 1003.4R   4/ 6
NORTHPORT PIER   2200   53     270/  5/ 11 1004.1R
SISTER BAY       2208   55     300/ 18/ 20   N/A
ALGOMA LAKESHORE 2202          270/  8/ 14   N/A
KEWAUNEE LAKESHO 2200   53     270/  8/ 11 1005.0R
SHEBOYGAN LAKESH 2300   56     290/ 14/ 18 1006.7R
PORT WASHINGTON  2200   59     290/ 10/ 17 1007.8R
ATWATER BUOY     2200   57 53  290/ 10/ 14 1007.3R
MILWAUKEE LAKESH 2210   58     290/ 10/ 12   N/A
S MID LAKE BUOY  2250   61 70  320/ 16/ 19 1006.8R   3/ 5
KENOSHA   LAKESH 2300   60     340/ 11/ 12 1007.5R
$$

TC  - TEMPERATURE IN CELSIUS
VSB - VISIBILITY IN STATUTE MILES
WCI - WIND CHILL INDEX
HX  - HEAT INDEX





USA.gov is the U.S. government's official web portal to all federal, state and local government web resources and services.